www.pogodaiklimat.ru

Погода и климат >> Архив погоды >> Россия >> Приморский край >> Пограничный


АРХИВ ПОГОДЫ в Пограничном

Время (UTC), дата Ветер
(напр.,м/с)
 
Видим.   Явления Облачность Т
(С)
Тd
(С)
f
(%)
Тe
(С)
Тes
(С)
Комфортность P
(гПа)
Po
(гПа)
Тmin
(С)
Tmax
(С)
R
(мм)
R24
(мм)
S
(см)
09 18.03 З 4
{11}
50 км ясно +14.4 -10.6 17 +14 +14 1002.4 976.8 +17.1
12 18.03 С 1 20 км ясно +6.8 -5.3 42 +7 +7 1005.5 979.2
15 18.03 З 3 20 км ясно +0.7 -5.9 61 -3 -3 1007.6 980.7
18 18.03 С 1 20 км ясно +1.2 -8.2 50 0 0 1009.2 982.2
21 18.03 З 3 20 км 3/0
[As trans]
+0.6 -7.6 54 -3 -3 1011.2 984.1 -1.2
00 19.03 В 2 50 км 3/0
[Ci fib]
+4.9 -7.3 41 +3 +8 1013.2 986.5
03 19.03 ЮВ 2 50 км 3/0
[Ci fib]
+10.0 -10.3 23 +9 +20 опасность
простуды
1011.6 985.4
06 19.03 В 4 50 км 4/0
[Ci fib]
+12.9 -8.4 22 +12 +16 1008.5 982.7
09 19.03 ЮВ 2 50 км 8/0
[Ci fib]
+11.1 -7.2 27 +11 +11 1007.1 981.1 +13.3
12 19.03 З 2 20 км 4/0
[Cs]
+3.9 -6.9 45 +2 +2 1007.0 980.3
15 19.03 З 3 20 км 8/0
[Cs]
+1.1 -6.2 58 -3 -3 1006.8 979.9
18 19.03 З 3 20 км 4/0
[Cs]
+0.9 -5.0 65 -3 -3 1006.1 979.2
21 19.03 З 2 20 км 3/0
[Cs]
+1.1 -4.8 65 -2 -2 1005.5 978.6 -0.2
00 20.03 ЮЗ 3 50 км 10/0
[As trans Cs]
+13.9 -0.9 36 +13 +16 1005.5 979.8
03 20.03 В 4 50 км 10/0
[As trans Cs]
+11.8 +1.1 48 +10 +14 1007.2 981.3
06 20.03 В 4
{10}
20 км 10/3 600 м
[Sc As trans Cs]
+6.4 -2.4 53 +3 +5 1010.0 983.5
09 20.03 СВ 1 20 км в посл. час ливневой дождь 10/8 600 м
[Cb cap As op]
+1.8 -4.1 65 +1 +1 1012.3 985.3 +16.4 0.6
12 20.03 С 1 20 км {ливн. осадки} 10/6 600 м
[Sc As op]
+0.8 -4.4 68 -1 -1 1012.3 985.2
15 20.03 штиль 0 20 км 10/10 600 м
[Sc]
-0.4 -1.7 91 -2 -2 1011.1 983.9
18 20.03 В 3 10 км слаб. снег 10/10 600 м
[Frnb Ns]
-1.4 -2.2 94 -7 -7 1008.8 981.7
21 20.03 С 1 1000 м сильн. снег 10/10 600 м
[Frnb Ns]
-2.5 -3.0 96 -5 -5 1006.6 979.4 -2.5 4 4
00 21.03 С 3 1000 м сильн. снег 10/10 600 м
[Frnb Ns]
-2.6 -3.3 95 -8 -8 1005.2 978.1 -2.6
03 21.03 С 2 10 км слаб. снег 10/10 600 м
[Frnb Ns]
-2.0 -3.9 87 -6 -6 1003.4 976.3
06 21.03 С 3 2000 м снег 10/10 600 м
[Frnb Ns]
-2.7 -5.7 80 -8 -8 1002.8 975.6
09 21.03 СЗ 2 10 км слаб. снег 10/10 600 м
[Frnb Ns]
-4.8 -7.4 82 -9 -9 1005.5 978.1 -1.8 6
12 21.03 СЗ 3 20 км {снег} 10/10 600 м
[Sc]
-4.9 -9.9 68 -10 -10 1009.2 981.7
15 21.03 З 3
{13}
20 км {метель} 10/4 600 м
[Sc As op]
-4.4 -9.5 68 -10 -10 1012.0 984.5
18 21.03 СЗ 2 20 км {метель} 10/0
[Cs]
-4.9 -10.3 66 -9 -9 1013.3 985.6
21 21.03 СЗ 2 20 км 3/3 600 м
[Sc]
-7.0 -12.8 63 -11 -11 1014.7 986.8 -7.0 0.2 8
00 22.03 СЗ 4 50 км 3/3 600 м
[Cu hum]
-3.8 -14.8 42 -9 -7 1015.8 988.1 -7.1
03 22.03 СЗ 4 50 км 3/3 600 м
[Cu hum Ci fib]
-1.1 -15.8 32 -6 -0 1016.1 988.7
06 22.03 СЗ 4
{12}
50 км {метель} 3/3 600 м
[Cu hum]
-0.8 -17.3 27 -5 -2 1015.9 988.6
09 22.03 СЗ 3
{11}
50 км {метель} 3/0
[Ac lent Cs]
-1.8 -18.6 26 -6 -6 1016.5 989.1 -0.3
12 22.03 Ю 1 20 км {метель} 3/0
[As trans Ci fib]
-6.3 -15.9 46 -8 -8 1018.6 990.6
15 22.03 З 2 20 км 10/0
[As trans Ci fib]
-8.5 -15.3 58 -13 -13 1018.6 990.4
18 22.03 З 2 20 км 10/0
[As trans Ci fib]
-10.3 -15.6 65 -15 -15 1017.5 989.2
21 22.03 З 2 20 км 10/0
[As trans Ci fib]
-10.7 -15.9 66 -15 -15 1015.9 987.6 -11.2 6
00 23.03 З 3 50 км 6/0
[Cs]
-2.9 -11.6 51 -7 -3 1013.8 986.3
03 23.03 З 6-10
{12}
50 км 8/4 600 м
[Cu med, cong Ci fib]
-0.2 -11.3 43 -6 -4 1012.2 985.1
06 23.03 СЗ 4
{14}
50 км {ливн. осадки} 8/4 600 м
[Cb cap Ci fib]
-2.0 -9.0 59 -7 -5 1012.0 984.7
09 23.03 З 3
{13}
50 км 10/8 600 м
[Cb cap Ci fib]
-4.7 -8.6 74 -10 -10 1014.1 986.5 +1.0 0.2
12 23.03 СЗ 2 20 км ясно -6.3 -15.9 46 -10 -10 1015.7 987.8
15 23.03 З 3 20 км ясно -6.8 -16.2 47 -12 -12 1015.2 987.3
18 23.03 З 2 20 км ясно -11.0 -16.4 64 -15 -15 1014.3 986.0
21 23.03 З 1 20 км 3/0
[Cs]
-9.9 -16.1 60 -12 -12 1012.8 984.7 -11.6 4
00 24.03 В 1 50 км 10/0
[As trans Cs]
-6.0 -12.6 60 -8 -4 1010.3 982.6
03 24.03 ЮВ 2 50 км 10/4 600 м
[Cb cap Ci sp]
+2.8 -10.6 37 +1 +7 1005.8 979.1
06 24.03 Ю 1
{10}
50 км 8/0
[Ac lent Cc]
+6.8 -10.4 28 +7 +12 1003.3 977.0
09 24.03 В 2 50 км 10/4 600 м
[Cb cap Ac lent Ci sp]
+6.0 -8.5 34 +4 +4 1002.6 976.3 +8.6
12 24.03 С 2 20 км 6/0
[Ac lent Ci sp]
+1.2 -4.6 65 -2 -2 1005.0 978.2
15 24.03 З 3 20 км ясно -3.0 -5.9 80 -8 -8 1005.2 978.0
18 24.03 ЮЗ 5 20 км 8/4 600 м
[Cb cap Ci sp]
+3.7 -3.2 61 -1 -1 1004.1 977.6
21 24.03 СЗ 2 20 км 3/0
[Ci sp]
+1.0 -2.7 76 -2 -2 1004.7 977.9 -3.4 0
00 25.03 З 3 50 км 6/3 600 м
[Cb cap Ci sp]
+6.9 -3.9 46 +5 +8 1004.7 978.5
03 25.03 ЮЗ 2 50 км 8/8 600 м
[Cb cap]
+9.3 -6.1 33 +8 +11 1004.2 978.1
06 25.03 З 3
{11}
50 км 8/6 600 м
[Cb cap Cs]
+10.2 -11.5 20 +9 +11 1003.0 977.0

 

Местоположение метеостанции Пограничный (Приморский край, Россия): широта 44.40 долгота 131.30 высота над уровнем моря 211 м.

В архиве по умолчанию представлена погода в Пограничном за последнюю неделю. Архивные данные за месяц целиком и за предыдущие месяцы, начиная с января 2011 года, Вы можете получить, выбрав интересующий диапазон дат из раскрывающегося списка и нажав кнопку "Ввод!".


*Определитесь, кто Вы:
робот инопланетянин человек

Внимание! Время в таблицах - всемирное. Для получения местного времени необходимо прибавить поправку, которая равна 10 ч.

Смотрите также архив погоды в соседних городах и на ближайших метеорологических станциях:

Погода в Суйфэньхэ (Хэйлунцзян, Китай) (12 км)
Погода в Полтавке (Приморский край, Россия) (41 км)
Погода в Хороле (Приморский край, Россия) (56 км)
Погода в Астраханке (Приморский край, Россия) (66 км)
Погода в Тимирязевском (Приморский край, Россия) (75 км)
Погода в Цзиси (Хэйлунцзян, Китай) (102 км)
Погода в Турьем Роге (Приморский край, Россия) (105 км)
Погода в Спасск-Дальнем (Приморский край, Россия) (122 км)
Погода в Барабаше (Приморский край, Россия) (134 км)
Погода в Муданьцзяне (Хэйлунцзян, Китай) (136 км)

Пояснения к столбцам:

Ветер - указаны скорость ветра в м/с - средняя за 10 мин, порывы в срок и между сроками (в фигурных скобках) и направление, откуда дует ветер: С - северный, СВ - северо-восточный, В - восточный, ЮВ - юго-восточный, Ю - южный, ЮЗ - юго-западный, З - западный, СЗ - северо-западный.
Видимость - горизонтальная дальность видимости в метрах или километрах. При видимости от 1 до 10 км при отсутствии осадков обычно наблюдается дымка, при ухудшении видимости до 1 км и менее - туман. В сухую погоду видимость может ухудшаться дымом, пылью или мглою.
Явления - указаны атмосферные явления, наблюдавшиеся в срок или в последний час перед сроком; фигурными скобками обозначены явления, наблюдавшиеся между сроками (за 1-3 часа до срока); квадратными скобками обозначены град или гололедные отложения с указанием их диаметра в мм.
Облачность - указаны через наклонную черту общая и нижняя облачность в баллах и высота нижней границы облаков в метрах; квадратными скобками обозначены формы облаков: Ci - перистые, Cs - перисто-слоистые, Cc - перисто-кучевые, Ac - высококучевые, As - высокослоистые, Sc - слоисто-кучевые, Ns - слоисто-дождевые, Cu - кучевые, Cb - кучево-дождевые. Подробнее классификацию облаков см. в Атласе облаков (PDF).
T - Температура воздуха - температура, измеренная на высоте 2 м над землей.
Td - Температура точки росы - температура, при понижении до которой содержащийся в воздухе водяной пар достигнет насыщения.
f - Относительная влажность воздуха - влажноcть воздуха, измеренная на высоте 2 м над землей.
Te - Эффективная температура - температура, которую ощущает одетый по сезону человек в тени. Характеристика душности погоды. При расчете учитывается влияние влажности воздуха и скорости ветра на теплоощущения человека.
Tes - Эффективная температура на солнце - температура, которую ощущает человек, с поправкой на солнечный нагрев. Характеристика знойности погоды. Зависит от высоты солнца над горизонтом, облачности и скорости ветра. Ночью, в пасмурную погоду, а также при ветре 12 м/с и более поправка равна нулю.
P - Атмосферное давление - приведенное к уровню моря атмосферное давление.
Po - Атмосферное давление - измеренное на уровне метеостанции атмосферное давление.
Tmin - Минимальная температура - минимум температуры воздуха на высоте 2 м над землей.
Tmax - Максимальная температура - максимум температуры воздуха на высоте 2 м над землей.
R - Количество осадков - Количество выпавших осадков за период времени, мм. При наведении курсора мыши на число - период времени, за который выпало указанное количество осадков.
R24 - Количество осадков - Количество выпавших осадков за 24 часа, мм.
S - Снежный покров - Высота снежного покрова, см. При наведении курсора мыши на число - состояние снежного покрова и степень покрытия местности в баллах.